Location: Newark
(20.0000°S, 47.0000°E)
Time: 01:11:19
(UTC+00:00)

Envisat - Pass Details

Date: 21 June 2019
Orbit: 764 x 766 km, 98.1° (Epoch: 14 October)

Event Time Altitude Azimuth Distance (km) Brightness Sun altitude
Exits shadow 17:06:16 13° 228° (SW) 2,140 5.6 -37.4°
Maximum altitude 17:08:03 15° 251° (WSW) 1,998 5.6 -37.8°
Drops below altitude 10° 17:10:46 10° 284° (WNW) 2,300 6.2 -38.4°
Sets 17:14:05 0° 307° (NW) 3,218 7.0 -39.2°
